Location: Newark
(50.4348°N, 30.5552°E)
Time: 17:48:49
(UTC+00:00)

Vanguard 3 - Pass Details

Date: 25 January 2020
Orbit: 508 x 3263 km, 33.3° (Epoch: 21 February)

Event Time Altitude Azimuth Distance (km) Brightness Sun altitude
Rises 18:11:38 0° 257° (WSW) 7,229 12.9 -33.7°
Reaches altitude 10° 18:17:05 10° 251° (WSW) 6,133 12.2 -34.6°
Maximum altitude 18:33:26 40° 192° (SSW) 3,477 10.1 -37.1°
Enters shadow 18:36:26 37° 170° (S) 3,390 9.9 -37.6°
